DW6120 Weather Reports


Display with metric or nautical units.
time (UTC)temp
F
wind
direction
speed
MPH
gust
MPH
rain 1hr
in
rain 24hr
in
rain mn
in
humidity
%
barometer
mb
20260504023028 62 90 4.0 7.0 0.00 0.00 0.00 28 1004.7
20260504021526 62 88 5.0 9.0 0.00 0.00 0.00 28 1004.7
20260504020026 63 84 5.0 8.0 0.00 0.00 0.00 28 1004.8
20260504014533 64 93 6.0 8.0 0.00 0.00 0.00 29 1004.9
20260504013023 65 86 4.0 7.0 0.00 0.00 0.00 28 1004.9
20260504011523 67 11 1.0 3.0 0.00 0.00 0.00 23 1005.1
20260504010022 68 310 3.0 7.0 0.00 0.00 0.00 22 1005.2
20260504004521 68 5 2.0 6.0 0.00 0.00 0.00 23 1005.1
20260504003023 70 232 5.0 9.0 0.00 0.00 0.00 20 1005.2
20260504001520 71 225 0.0 5.0 0.00 0.00 0.00 22 1005.3
20260504000018 71 225 2.0 5.0 0.00 0.00 0.00 20 1005.4
20260503234519 71 281 2.0 5.0 0.00 0.00 0.00 19 1005.2
20260503233017 72 221 0.0 7.0 0.00 0.00 0.00 19 1005.5
20260503231518 72 159 0.0 2.0 0.00 0.00 0.00 17 1005.6
20260503230016 73 227 1.0 5.0 0.00 0.00 0.00 19 1005.7
20260503224517 73 229 2.0 8.0 0.00 0.00 0.00 20 1005.8
20260503223015 74 242 4.0 8.0 0.00 0.00 0.00 19 1006.1
20260503221512 73 224 4.0 10.0 0.00 0.00 0.00 19 1006.4
20260503220008 73 242 5.0 10.0 0.00 0.00 0.00 18 1006.7
20260503214506 72 282 6.0 10.0 0.00 0.00 0.00 17 1007.1
20260503213004 74 232 4.0 8.0 0.00 0.00 0.00 18 1007.4
20260503211501 74 238 5.0 13.0 0.00 0.00 0.00 18 1007.7
20260503210002 74 180 2.0 12.0 0.00 0.00 0.00 16 1008.0
20260503204605 74 212 3.0 15.0 0.00 0.00 0.00 18 1008.2
20260503203058 73 217 5.0 8.0 0.00 0.00 0.00 18 1008.4
20260503201554 73 321 5.0 11.0 0.00 0.00 0.00 17 1008.8
20260503194556 73 207 1.0 7.0 0.00 0.00 0.00 19 1009.2
20260503193052 73 228 3.0 7.0 0.00 0.00 0.00 20 1009.3
20260503191550 73 54 5.0 13.0 0.00 0.00 0.00 17 1009.6
20260503190052 72 169 4.0 15.0 0.00 0.00 0.00 19 1009.8
20260503184558 70 144 4.0 13.0 0.00 0.00 0.00 20 1010.1
20260503183047 69 125 4.0 10.0 0.00 0.00 0.00 20 1010.1
20260503181544 70 303 3.0 6.0 0.00 0.00 0.00 24 1010.3
20260503180046 70 10 1.0 4.0 0.00 0.00 0.00 25 1010.4
20260503174535 67 314 0.0 4.0 0.00 0.00 0.00 27 1010.7
20260503173035 68 346 3.0 6.0 0.00 0.00 0.00 27 1010.9
20260503171531 65 265 2.0 6.0 0.00 0.00 0.00 27 1011.1
20260503081539 53 91 5.0 8.0 0.00 0.00 0.00 34 1012.7
20260503071534 52 84 4.0 8.0 0.00 0.00 0.00 35 1013.0
20260503054535 54 118 4.0 8.0 0.00 0.00 0.00 33 1013.0
20260503053026 54 120 3.0 6.0 0.00 0.00 0.00 33 1013.0
20260503051525 55 77 1.0 9.0 0.00 0.00 0.00 33 1012.9
20260503050032 55 88 4.0 9.0 0.00 0.00 0.00 33 1013.1
20260503044526 55 88 7.0 9.0 0.00 0.00 0.00 32 1013.1
20260503043038 55 89 6.0 9.0 0.00 0.00 0.00 33 1013.1
20260503041526 55 101 5.0 8.0 0.00 0.00 0.00 34 1013.1
20260503040023 56 88 5.0 8.0 0.00 0.00 0.00 34 1013.0
20260503034523 56 113 7.0 10.0 0.00 0.00 0.00 34 1012.9
20260503033031 56 97 6.0 9.0 0.00 0.00 0.00 35 1012.8
20260503031521 56 91 5.0 8.0 0.00 0.00 0.00 35 1012.7
20260503030020 57 109 5.0 10.0 0.00 0.00 0.00 35 1012.8
20260503024526 58 92 5.0 8.0 0.00 0.00 0.00 34 1012.8